Orbital Elements at Epoch 2459000.5 (2020-May-31.0) TDB
Reference: JPL 10 (heliocentric ecliptic J2000)
Element | Value | Uncertainty (1-sigma) | Units |
e | .1119932451007746 | 8.4676e-08 | |
a | 2.890362941553364 | 2.8521e-08 | au |
q | 2.566661816209783 | 2.4738e-07 | au |
i | 4.701683271073159 | 6.3172e-06 | deg |
node | 194.0343071805469 | 6.0112e-05 | deg |
peri | 151.2164345318246 | 6.9772e-05 | deg |
M | 338.5956431881152 | 2.8384e-05 | deg |
tp | 2459107.215297315797 (2020-Sep-14.71529732) | 0.00014103 | TDB |
period | 1794.845197700861 4.91 | 2.6566e-05 7.273e-08 | d yr |
n | .2005744007679038 | 2.9687e-09 | deg/d |
Q | 3.214064066896946 | 3.1715e-08 | au |
|
| | Orbit Determination Parameters
Additional Information
|